Seminole, OK

8:52 AM CDT on October 21, 2019 (GMT -0500)
Seminole

Weather History for KSRE - September, 2019

Change the Weather History Date:

Thursday, September 19, 2019

  Actual Average (KADH) Record (KADH)
Temperature  
Mean Temperature 80 °F -  
Max Temperature 91 °F 83 °F 98 °F (1960)
Min Temperature 69 °F 61 °F 44 °F (1971)
Cooling Degree Days 15    
Growing Degree Days 30 (Base 50)    
Moisture  
Dew Point 66 °F    
Average Humidity 66    
Maximum Humidity 94    
Minimum Humidity 38    
Precipitation  
Precipitation 0.00 in - - ()
Sea Level Pressure  
Sea Level Pressure 29.95 in    
Wind  
Wind Speed 4 mph ()    
Max Wind Speed 14 mph    
Max Gust Speed 28 mph    
Visibility 10.0 miles    
Events      
Averages and records for this station are not official NWS values.
T = Trace of Precipitation, MM = Missing Value Source: Averaged Metar Reports

Daily Weather History Graph

Daily Weather History Graph

Search for Another Location

Airport or City:

Astronomy

Sep. 19, 2019 Rise Set
Actual Time 7:12 AM CDT 7:28 PM CDT
Civil Twilight 6:46 AM CDT 7:53 PM CDT
Nautical Twilight 6:17 AM CDT 8:23 PM CDT
Astronomical Twilight 5:47 AM CDT 8:53 PM CDT
Moon 10:49 PM CDT (9/19) 12:06 PM CDT (9/19)
Length of Visible Light 13h 06m
Length of Day
12h 15m
Waning Gibbous, 74% of the Moon is Illuminated
Sep 19
Waning Gibbous
Sep 21
Last Quarter
Sep 28
New
Oct 5
First Quarter
Oct 13
Full

Hourly Weather History & Observations

Time (CDT) Temp. Heat Index Dew Point Humidity Pressure Visibility Wind Dir Wind Speed Gust Speed Precip Events Conditions
12:15 AM 77.0 °F - 68.0 °F 74% 29.96 in 10.0 mi Calm Calm - N/A   Clear
12:35 AM 75.2 °F - 68.0 °F 78% 29.96 in 10.0 mi Calm Calm - N/A   Mostly Cloudy
12:55 AM 75.2 °F - 68.0 °F 78% 29.96 in 10.0 mi Calm Calm - N/A   Mostly Cloudy
1:15 AM 75.2 °F - 68.0 °F 78% 29.96 in 10.0 mi East 3.5 mph - N/A   Clear
1:35 AM 75.2 °F - 68.0 °F 78% 29.96 in 10.0 mi ESE 4.6 mph - N/A   Clear
1:55 AM 75.2 °F - 68.0 °F 78% 29.96 in 10.0 mi SE 4.6 mph - N/A   Clear
2:15 AM 75.2 °F - 68.0 °F 78% 29.96 in 10.0 mi ESE 3.5 mph - N/A   Clear
2:35 AM 73.4 °F - 68.0 °F 83% 29.96 in 10.0 mi Calm Calm - N/A   Clear
2:55 AM 71.6 °F - 68.0 °F 88% 29.96 in 10.0 mi Calm Calm - N/A   Clear
3:15 AM 71.6 °F - 68.0 °F 88% 29.96 in 10.0 mi Calm Calm - N/A   Clear
3:35 AM 73.4 °F - 68.0 °F 83% 29.96 in 10.0 mi Calm Calm - N/A   Clear
3:55 AM 71.6 °F - 68.0 °F 88% 29.95 in 10.0 mi Calm Calm - N/A   Clear
4:15 AM 71.6 °F - 68.0 °F 88% 29.95 in 10.0 mi Calm Calm - N/A   Clear
4:35 AM 71.6 °F - 68.0 °F 88% 29.96 in 10.0 mi Calm Calm - N/A   Clear
4:55 AM 71.6 °F - 68.0 °F 88% 29.96 in 10.0 mi Calm Calm - N/A   Clear
5:15 AM 71.6 °F - 68.0 °F 88% 29.96 in 10.0 mi ESE 3.5 mph - N/A   Partly Cloudy
5:35 AM 71.6 °F - 68.0 °F 88% 29.96 in 10.0 mi East 3.5 mph - N/A   Scattered Clouds
5:55 AM 71.6 °F - 68.0 °F 88% 29.96 in 10.0 mi ESE 4.6 mph - N/A   Scattered Clouds
6:15 AM 71.6 °F - 68.0 °F 88% 29.96 in 10.0 mi SE 4.6 mph - N/A   Clear
6:35 AM 71.6 °F - 68.0 °F 88% 29.96 in 10.0 mi SE 4.6 mph - N/A   Clear
6:55 AM 69.8 °F - 68.0 °F 94% 29.97 in 10.0 mi SE 3.5 mph - N/A   Clear
7:15 AM 71.6 °F - 68.0 °F 88% 29.97 in 10.0 mi Calm Calm - N/A   Clear
7:55 AM 71.6 °F - 68.0 °F 88% 29.98 in 10.0 mi ESE 3.5 mph - N/A   Clear
8:15 AM 73.4 °F - 69.8 °F 88% 29.98 in 10.0 mi Variable 5.8 mph - N/A   Clear
8:35 AM 75.2 °F - 69.8 °F 83% 29.98 in 10.0 mi Variable 4.6 mph - N/A   Clear
8:55 AM 77.0 °F - 69.8 °F 78% 29.99 in 10.0 mi Variable 4.6 mph - N/A   Clear
9:10 AM 77.0 °F - 69.8 °F 78% 29.99 in 10.0 mi Variable 5.8 mph 16.1 mph N/A   Clear
9:35 AM 78.8 °F - 69.8 °F 74% 30.00 in 10.0 mi SE 8.1 mph 13.8 mph N/A   Clear
9:55 AM 78.8 °F - 68.0 °F 69% 30.01 in 10.0 mi SSE 9.2 mph - N/A   Partly Cloudy
10:15 AM 80.6 °F 83.9 °F 69.8 °F 70% 30.01 in 10.0 mi SSE 8.1 mph 16.1 mph N/A   Partly Cloudy
10:35 AM 80.6 °F 83.9 °F 69.8 °F 70% 30.01 in 10.0 mi SE 8.1 mph - N/A   Partly Cloudy
10:55 AM 82.4 °F 86.3 °F 69.8 °F 66% 30.01 in 10.0 mi SE 6.9 mph 13.8 mph N/A   Mostly Cloudy
11:15 AM 82.4 °F 86.3 °F 69.8 °F 66% 30.01 in 10.0 mi SSE 6.9 mph - N/A   Mostly Cloudy
11:35 AM 84.2 °F 87.3 °F 68.0 °F 58% 30.00 in 10.0 mi Variable 4.6 mph 15.0 mph N/A   Mostly Cloudy
11:55 AM 84.2 °F 87.3 °F 68.0 °F 58% 29.99 in 10.0 mi SE 8.1 mph - N/A   Partly Cloudy
12:15 PM 86.0 °F 89.4 °F 68.0 °F 55% 29.99 in 10.0 mi Variable 6.9 mph 16.1 mph N/A   Partly Cloudy
12:35 PM 87.8 °F 91.4 °F 68.0 °F 52% 29.99 in 10.0 mi ESE 10.4 mph 18.4 mph N/A   Mostly Cloudy
12:55 PM 86.0 °F 89.4 °F 68.0 °F 55% 29.98 in 10.0 mi ESE 10.4 mph 17.3 mph N/A   Scattered Clouds
1:15 PM 87.8 °F 91.4 °F 68.0 °F 52% 29.97 in 10.0 mi ESE 9.2 mph 16.1 mph N/A   Partly Cloudy
1:35 PM 89.6 °F 92.2 °F 66.2 °F 46% 29.97 in 10.0 mi ESE 13.8 mph 26.5 mph N/A   Partly Cloudy
1:55 PM 89.6 °F 92.2 °F 66.2 °F 46% 29.96 in 10.0 mi East 8.1 mph 18.4 mph N/A   Partly Cloudy
2:15 PM 89.6 °F 92.2 °F 66.2 °F 46% 29.96 in 10.0 mi ESE 12.7 mph - N/A   Mostly Cloudy
2:35 PM 87.8 °F 89.4 °F 64.4 °F 46% 29.95 in 10.0 mi SE 12.7 mph 27.6 mph N/A   Mostly Cloudy
3:15 PM 87.8 °F 89.4 °F 64.4 °F 46% 29.94 in 10.0 mi ESE 12.7 mph - N/A   Mostly Cloudy
3:55 PM 89.6 °F 91.1 °F 64.4 °F 43% 29.92 in 10.0 mi SE 10.4 mph 23.0 mph N/A   Scattered Clouds
4:15 PM 87.8 °F 88.5 °F 62.6 °F 43% 29.92 in 10.0 mi SE 12.7 mph 19.6 mph N/A   Partly Cloudy
4:35 PM 89.6 °F 90.1 °F 62.6 °F 40% 29.91 in 10.0 mi ESE 11.5 mph - N/A   Partly Cloudy
4:55 PM 89.6 °F 90.1 °F 62.6 °F 40% 29.91 in 10.0 mi East 8.1 mph 16.1 mph N/A   Scattered Clouds
5:15 PM 91.4 °F 92.1 °F 62.6 °F 38% 29.91 in 10.0 mi ESE 8.1 mph 15.0 mph N/A   Mostly Cloudy
5:35 PM 87.8 °F 88.5 °F 62.6 °F 43% 29.90 in 10.0 mi ESE 9.2 mph - N/A   Overcast
5:55 PM 89.6 °F 90.1 °F 62.6 °F 40% 29.90 in 10.0 mi ESE 9.2 mph - N/A   Scattered Clouds
6:15 PM 89.6 °F 90.1 °F 62.6 °F 40% 29.90 in 10.0 mi ESE 10.4 mph - N/A   Mostly Cloudy
6:35 PM 87.8 °F 88.5 °F 62.6 °F 43% 29.90 in 10.0 mi ESE 6.9 mph 15.0 mph N/A   Scattered Clouds
6:55 PM 86.0 °F 86.6 °F 62.6 °F 45% 29.90 in 10.0 mi SE 8.1 mph - N/A   Partly Cloudy
7:15 PM 84.2 °F 85.0 °F 62.6 °F 48% 29.90 in 10.0 mi SE 5.8 mph - N/A   Scattered Clouds
7:35 PM 84.2 °F 85.0 °F 62.6 °F 48% 29.90 in 10.0 mi SE 4.6 mph - N/A   Mostly Cloudy
7:55 PM 82.4 °F 83.9 °F 64.4 °F 54% 29.90 in 10.0 mi SE 4.6 mph - N/A   Overcast
8:15 PM 80.6 °F 82.3 °F 64.4 °F 58% 29.91 in 10.0 mi SE 3.5 mph - N/A   Mostly Cloudy
8:35 PM 80.6 °F 82.3 °F 64.4 °F 58% 29.92 in 10.0 mi SE 4.6 mph - N/A   Mostly Cloudy
8:55 PM 80.6 °F 82.3 °F 64.4 °F 58% 29.93 in 10.0 mi East 4.6 mph - N/A   Overcast
9:15 PM 80.6 °F 82.3 °F 64.4 °F 58% 29.93 in 10.0 mi ESE 3.5 mph - N/A   Overcast
9:35 PM 78.8 °F - 64.4 °F 61% 29.94 in 10.0 mi East 3.5 mph - N/A   Overcast
9:55 PM 78.8 °F - 64.4 °F 61% 29.96 in 10.0 mi Calm Calm - N/A   Mostly Cloudy
10:15 PM 78.8 °F - 62.6 °F 57% 29.96 in 10.0 mi East 4.6 mph - N/A   Partly Cloudy
10:55 PM 77.0 °F - 62.6 °F 61% 29.95 in 10.0 mi SE 8.1 mph - N/A   Clear
11:15 PM 77.0 °F - 62.6 °F 61% 29.96 in 10.0 mi SE 11.5 mph 20.7 mph N/A   Clear
11:35 PM 75.2 °F - 62.6 °F 65% 29.96 in 10.0 mi SE 6.9 mph - N/A   Clear
11:55 PM 75.2 °F - 62.6 °F 65% 29.96 in 10.0 mi SE 6.9 mph - N/A   Clear